Overview Statistics Trail Chart Weather Telemetry Raw packets
 

This is the latest recevied weather packets stored in our database for station/object DL0BB-10. If no packets are shown the sender has not sent any weather packets the latest 10 day(s).

<< 1 2 3 4 5 6 7 >>
Time Temp. Humidity Pressure Rain* Wind** Luminosity Snow
1788648299 27.22° C 37% 1026.9 hPa - - - -
1788647399 26.67° C 38% 1026.8 hPa - - - -
1788646499 26.67° C 38% 1026.7 hPa - - - -
1788645598 27.22° C 37% 1026.5 hPa - - - -
1788644698 27.22° C 37% 1026.5 hPa - - - -
1788643798 26.67° C 38% 1026.4 hPa - - - -
1788642897 27.22° C 38% 1026.4 hPa - - - -
1788641997 27.78° C 37% 1026.2 hPa - - - -
1788641102 27.22° C 38% 1026 hPa - - - -
1788640204 27.22° C 39% 1025.9 hPa - - - -
1788639302 27.78° C 38% 1025.8 hPa - - - -
1788638403 28.33° C 37% 1025.7 hPa - - - -
1788637503 27.22° C 39% 1025.5 hPa - - - -
1788636601 27.22° C 39% 1025.4 hPa - - - -
1788635702 27.78° C 38% 1025.3 hPa - - - -
1788634801 28.33° C 38% 1025.2 hPa - - - -
1788633901 27.22° C 39% 1025.1 hPa - - - -
1788633000 27.78° C 38% 1024.8 hPa - - - -
1788632100 28.33° C 38% 1024.5 hPa - - - -
1788631200 27.78° C 38% 1024.3 hPa - - - -
1788630299 27.78° C 39% 1024.3 hPa - - - -
1788629399 28.33° C 38% 1024.1 hPa - - - -
1788628499 28.89° C 37% 1023.9 hPa - - - -
1788627600 27.78° C 39% 1024 hPa - - - -
1788626699 27.78° C 39% 1023.9 hPa - - - -

* Rain since midnight (hover to see other rain measurements)
** Current wind speed in m/s (hover to see current wind gust speed)